Bluffton, MN

5:45 PM CST on February 12, 2016 (GMT -0600)
Wadena Municipal

Weather History for KADC - November, 2013

Change the Weather History Date:

Friday, November 8, 2013

  Actual Average Record
Temperature  
Mean Temperature 28 °F -  
Max Temperature 37 °F 40 °F 66 °F (2006)
Min Temperature 19 °F 22 °F -7 °F (2003)
Degree Days  
Heating Degree Days 37    
Moisture  
Dew Point 25 °F    
Average Humidity 83    
Maximum Humidity 100    
Minimum Humidity 56    
Precipitation  
Precipitation 0.02 in - - ()
Sea Level Pressure  
Sea Level Pressure 29.80 in    
Wind  
Wind Speed 5 mph (SE)    
Max Wind Speed 23 mph    
Max Gust Speed 31 mph    
Visibility 8 miles    
Events Rain , Snow    
Averages and records for this station are not official NWS values.
T = Trace of Precipitation, MM = Missing Value Source: NWS Daily Summary

Daily Weather History Graph

Daily Weather History Graph

Search for Another Location

Airport or City:

Trip Planner

Search our weather history database for the weather conditions in past years. The results will help you decide how hot, cold, wet, or windy it might be!

Date:

Astronomy

Nov. 08, 2013 Rise Set
Actual Time 7:12 AM CST 4:55 PM CST
Civil Twilight 6:40 AM CST 5:27 PM CST
Nautical Twilight 6:04 AM CST 6:03 PM CST
Astronomical Twilight 5:29 AM CST 6:39 PM CST
Moon 12:09 PM CST (11/8) 10:18 PM CST (11/8)
Length of Visible Light 10h 47m
Length of Day
9h 42m
Waxing Crescent, 33% of the Moon is Illuminated
Nov 8
Waxing Crescent
Nov 9
First Quarter
Nov 17
Full
Nov 25
Last Quarter
Dec 2
New

Hourly Weather History & Observations

Time (CST) Temp. Windchill Dew Point Humidity Pressure Visibility Wind Dir Wind Speed Gust Speed Precip Events Conditions
12:14 AM 21.2 °F - 19.4 °F 93% 30.11 in 7.0 mi Calm Calm - N/A   Clear
12:35 AM 21.2 °F - 19.4 °F 93% 30.11 in 7.0 mi Calm Calm - N/A   Clear
12:53 AM 21.2 °F 16.4 °F 19.4 °F 93% 30.11 in 10.0 mi South 3.5 mph - N/A   Clear
1:14 AM 21.2 °F - 19.4 °F 93% 30.11 in 10.0 mi Calm Calm - N/A   Clear
1:35 AM 19.4 °F - 19.4 °F 100% 30.11 in 10.0 mi Calm Calm - N/A   Clear
1:53 AM 21.2 °F 16.4 °F 19.4 °F 93% 30.10 in 7.0 mi SSE 3.5 mph - N/A   Clear
2:15 AM 21.2 °F 16.4 °F 19.4 °F 93% 30.10 in 7.0 mi SSE 3.5 mph - N/A   Clear
2:35 AM 21.2 °F - 21.2 °F 100% 30.09 in 7.0 mi Calm Calm - N/A   Clear
2:52 AM 21.2 °F - 19.4 °F 93% 30.09 in 7.0 mi Calm Calm - N/A   Clear
3:15 AM 21.2 °F - 19.4 °F 93% 30.08 in 7.0 mi Calm Calm - N/A   Clear
3:35 AM 19.4 °F - 17.6 °F 93% 30.07 in 7.0 mi Calm Calm - N/A   Clear
3:53 AM 19.4 °F - 17.6 °F 93% 30.07 in 7.0 mi Calm Calm - N/A   Clear
4:14 AM 19.4 °F - 19.4 °F 100% 30.06 in 7.0 mi Calm Calm - N/A   Clear
4:34 AM 19.4 °F - 19.4 °F 100% 30.06 in 7.0 mi Calm Calm - N/A   Clear
4:53 AM 23.0 °F 17.0 °F 21.2 °F 93% 30.05 in 7.0 mi ESE 4.6 mph - N/A   Scattered Clouds
5:15 AM 24.8 °F 20.5 °F 21.2 °F 86% 30.04 in 7.0 mi ESE 3.5 mph - N/A   Scattered Clouds
5:35 AM 24.8 °F 20.5 °F 23.0 °F 93% 30.03 in 7.0 mi ESE 3.5 mph - N/A   Scattered Clouds
5:53 AM 24.8 °F 20.5 °F 23.0 °F 93% 30.02 in 7.0 mi ESE 3.5 mph - N/A   Scattered Clouds
6:14 AM 24.8 °F 17.9 °F 23.0 °F 93% 30.01 in 7.0 mi ESE 5.8 mph - N/A   Clear
6:35 AM 24.8 °F 16.9 °F 23.0 °F 93% 30.00 in 7.0 mi ESE 6.9 mph - N/A   Clear
6:53 AM 24.8 °F 16.9 °F 23.0 °F 93% 29.99 in 7.0 mi ESE 6.9 mph - N/A   Clear
7:15 AM 24.8 °F 16.9 °F 23.0 °F 93% 29.98 in 7.0 mi ESE 6.9 mph - N/A   Scattered Clouds
7:35 AM 26.6 °F 18.2 °F 24.8 °F 93% 29.97 in 7.0 mi SE 8.1 mph - N/A   Scattered Clouds
7:52 AM 26.6 °F 19.1 °F 24.8 °F 93% 29.97 in 7.0 mi SE 6.9 mph - N/A   Scattered Clouds
8:14 AM 28.4 °F 21.2 °F 26.6 °F 93% 29.96 in 10.0 mi SE 6.9 mph - N/A   Overcast
8:35 AM 30.2 °F 20.8 °F 26.6 °F 86% 29.94 in 10.0 mi SE 11.5 mph - N/A   Mostly Cloudy
8:53 AM 30.2 °F 20.8 °F 26.6 °F 86% 29.92 in 10.0 mi SE 11.5 mph - N/A   Scattered Clouds
9:14 AM 32.0 °F 22.5 °F 28.4 °F 87% 29.90 in 10.0 mi SE 12.7 mph - N/A   Mostly Cloudy
9:35 AM 32.0 °F 22.1 °F 28.4 °F 87% 29.89 in 10.0 mi SE 13.8 mph - N/A   Overcast
9:53 AM 33.8 °F 25.3 °F 28.4 °F 81% 29.87 in 10.0 mi ESE 11.5 mph - N/A Snow Light Snow
10:14 AM 33.8 °F 23.9 °F 28.4 °F 81% 29.86 in 10.0 mi ESE 15.0 mph - N/A   Mostly Cloudy
10:35 AM 33.8 °F 23.9 °F 28.4 °F 81% 29.85 in 10.0 mi ESE 15.0 mph - N/A   Clear
10:52 AM 33.8 °F 23.9 °F 28.4 °F 81% 29.84 in 10.0 mi ESE 15.0 mph - N/A   Scattered Clouds
11:14 AM 35.6 °F 25.9 °F 26.6 °F 70% 29.83 in 10.0 mi ESE 16.1 mph - N/A   Mostly Cloudy
11:34 AM 35.6 °F 26.6 °F 26.6 °F 70% 29.82 in 10.0 mi ESE 13.8 mph 20.7 mph N/A   Mostly Cloudy
11:53 AM 35.6 °F 26.6 °F 26.6 °F 70% 29.80 in 10.0 mi ESE 13.8 mph - N/A   Scattered Clouds
12:15 PM 35.6 °F 25.2 °F 24.8 °F 65% 29.78 in 10.0 mi ESE 18.4 mph 24.2 mph N/A   Scattered Clouds
12:35 PM 35.6 °F 24.2 °F 24.8 °F 65% 29.75 in 10.0 mi ESE 21.9 mph 28.8 mph N/A   Scattered Clouds
12:53 PM 35.6 °F 24.0 °F 24.8 °F 65% 29.71 in 10.0 mi ESE 23.0 mph 31.1 mph N/A   Scattered Clouds
1:15 PM 35.6 °F 24.0 °F 24.8 °F 65% 29.69 in 10.0 mi ESE 23.0 mph 27.6 mph N/A   Mostly Cloudy
1:34 PM 35.6 °F 24.5 °F 23.0 °F 60% 29.68 in 10.0 mi SE 20.7 mph 28.8 mph N/A   Mostly Cloudy
1:53 PM 37.4 °F 27.8 °F 23.0 °F 56% 29.68 in 10.0 mi SE 17.3 mph 24.2 mph N/A   Mostly Cloudy
2:15 PM 37.4 °F 27.5 °F 23.0 °F 56% 29.68 in 10.0 mi SE 18.4 mph 23.0 mph N/A   Overcast
2:34 PM 37.4 °F 27.5 °F 23.0 °F 56% 29.64 in 10.0 mi SE 18.4 mph 26.5 mph N/A   Mostly Cloudy
2:53 PM 37.4 °F 27.8 °F 24.8 °F 60% 29.64 in 10.0 mi SE 17.3 mph 26.5 mph N/A   Mostly Cloudy
3:15 PM 37.4 °F 27.8 °F 24.8 °F 60% 29.65 in 10.0 mi SE 17.3 mph 23.0 mph N/A   Mostly Cloudy
3:35 PM 37.4 °F 28.2 °F 24.8 °F 60% 29.64 in 10.0 mi SE 16.1 mph 20.7 mph N/A   Overcast
3:53 PM 37.4 °F 29.8 °F 24.8 °F 60% 29.64 in 10.0 mi SE 11.5 mph - N/A   Overcast
4:15 PM 37.4 °F 29.3 °F 24.8 °F 60% 29.62 in 10.0 mi SE 12.7 mph - N/A   Overcast
4:35 PM 35.6 °F 28.0 °F 24.8 °F 65% 29.61 in 10.0 mi SE 10.4 mph - N/A   Overcast
4:52 PM 35.6 °F 29.9 °F 24.8 °F 65% 29.61 in 10.0 mi SE 6.9 mph - N/A   Overcast
5:15 PM 35.6 °F 29.2 °F 24.8 °F 65% 29.60 in 10.0 mi ESE 8.1 mph - N/A   Overcast
5:34 PM 35.6 °F 28.6 °F 24.8 °F 65% 29.59 in 10.0 mi SE 9.2 mph - N/A   Overcast
5:52 PM 35.6 °F 29.2 °F 24.8 °F 65% 29.59 in 10.0 mi ESE 8.1 mph - N/A   Overcast
6:14 PM 35.6 °F 31.7 °F 26.6 °F 70% 29.59 in 10.0 mi ESE 4.6 mph - N/A   Overcast
6:35 PM 35.6 °F 32.8 °F 26.6 °F 70% 29.59 in 10.0 mi East 3.5 mph - N/A Snow Light Snow
6:53 PM 35.6 °F - 26.6 °F 70% 29.59 in 10.0 mi Calm Calm - N/A   Overcast
7:15 PM 33.8 °F - 28.4 °F 81% 29.59 in 2.5 mi Calm Calm - N/A Snow Light Snow
7:35 PM 32.0 °F - 28.4 °F 87% 29.58 in 1.8 mi Calm Calm - N/A Snow Light Snow
7:52 PM 32.0 °F 27.5 °F 30.2 °F 93% 29.57 in 2.5 mi East 4.6 mph - N/A Snow Light Snow
8:15 PM 32.0 °F - 30.2 °F 93% 29.57 in 1.8 mi Calm Calm - N/A Snow Light Snow
8:35 PM 32.0 °F - 30.2 °F 93% 29.57 in 1.8 mi Calm Calm - 0.02 in Snow Light Snow
8:52 PM 30.2 °F - 30.2 °F 100% 29.57 in 4.0 mi Calm Calm - 0.02 in Rain Light Freezing Rain
9:14 PM 30.2 °F - 30.2 °F 100% 29.57 in 4.0 mi Calm Calm - N/A   Overcast
9:35 PM 30.2 °F - 30.2 °F 100% 29.57 in 4.0 mi Calm Calm - N/A   Overcast
9:53 PM 30.2 °F - 30.2 °F 100% 29.56 in 4.0 mi Calm Calm - N/A   Overcast
10:14 PM 30.2 °F - 30.2 °F 100% 29.56 in 4.0 mi Calm Calm - N/A   Overcast
10:35 PM 30.2 °F - 30.2 °F 100% 29.56 in 4.0 mi Calm Calm - N/A   Overcast
10:53 PM 30.2 °F - 30.2 °F 100% 29.56 in 4.0 mi Calm Calm - N/A   Overcast
11:15 PM 30.2 °F - 30.2 °F 100% 29.57 in 3.0 mi Calm Calm - N/A   Overcast
11:35 PM 30.2 °F - 30.2 °F 100% 29.58 in 3.0 mi Calm Calm - N/A   Overcast
11:53 PM 30.2 °F - 30.2 °F 100% 29.58 in 4.0 mi Calm Calm - N/A   Overcast